Flag for U.S.A. Weather past 2 weeks in State College, Pennsylvania, U.S.A.

Now
59 °F

Passing clouds.


Feels Like: 59 °F
Forecast: 58 / 80 °F
Wind: No wind

Location: University Park Airport

Current Time: Aug 30, 2014 at 3:02:08 AM

Latest Report: Aug 30, 2014 at 2:15 AM


Visibility: 10 mi

Pressure: 30.20 "Hg

Humidity: 79%

Dew point: 53 °F

Location of State CollegeLocation

Historic Weather in State College — Graph

°F

State College temperature yesterday

Maximum temperature yesterday: 72 °F (at 2:53 PM)
Minimum temperature yesterday: 48 °F (at 5:53 AM)
Average temperature yesterday: 58 °F

Past Weeks' High & Low Weather Summary

 TemperatureHumidityPressure
High86 °F (Aug 27, 4:53 PM)100% (Aug 16, 7:53 AM)30.25 "Hg (Aug 16, 7:53 AM)
Low48 °F (Aug 15, 5:53 AM)44% (Aug 16, 1:53 PM)29.85 "Hg (Aug 18, 6:53 PM)
Average64 °F83%30.05 "Hg
* Reported Aug 15 1:15 AM — Aug 30 1:55 AM, State College, Weather by CustomWeather, © 2014

Note: Actual official high and low records may vary slightly from our data, if they occured in-between our weather recording intervals... More about our weather records

Advertising

State College weather history for previous 24 hours

 ConditionsComfort  
Time TempWeatherWind HumidityBarometerVisibility
1:55 AM
Aug 30
59 °FPassing clouds.3 mph80%30.21 "Hg10 mi
1:35 AM60 °FClear.3 mph79%30.21 "Hg10 mi
1:15 AM60 °FPassing clouds.No wind77%30.20 "Hg10 mi
12:55 AM60 °FClear.No wind78%30.20 "Hg10 mi
12:35 AM60 °FPassing clouds.No wind78%30.20 "Hg10 mi
12:15 AM59 °FPassing clouds.5 mph80%30.20 "Hg10 mi
11:55 PM
Aug 29
60 °FPassing clouds.No wind77%30.21 "Hg10 mi
11:35 PM60 °FPassing clouds.No wind79%30.20 "Hg10 mi
11:15 PM61 °FPassing clouds.No wind77%30.21 "Hg10 mi
10:55 PM60 °FClear.No wind81%30.20 "Hg10 mi
10:35 PM60 °FClear.3 mph81%30.21 "Hg10 mi
10:15 PM64 °FClear.No wind67%30.21 "Hg10 mi
9:55 PM64 °FPassing clouds.No wind68%30.20 "Hg10 mi
8:53 PM64 °FPassing clouds.No wind68%30.19 "Hg10 mi
7:53 PM66 °FPassing clouds.No wind64%30.18 "Hg10 mi
6:53 PM70 °FSunny.5 mph57%30.18 "Hg10 mi
5:53 PM72 °FSunny.6 mph57%30.18 "Hg10 mi
4:53 PM72 °FSunny.6 mph57%30.17 "Hg10 mi
2:53 PM72 °FSunny.6 mph50%30.19 "Hg10 mi
1:53 PM70 °FPassing clouds.8 mph53%30.21 "Hg10 mi
12:53 PM68 °FPassing clouds.8 mph53%30.21 "Hg10 mi
11:53 AM66 °FPassing clouds.5 mph64%30.23 "Hg10 mi
10:53 AM63 °FSunny.5 mph73%30.24 "Hg10 mi
9:53 AM55 °FSunny.No wind88%30.25 "Hg10 mi
8:53 AM55 °FSunny.No wind88%30.22 "Hg10 mi
7:53 AM52 °FSunny.No wind94%30.22 "Hg10 mi
6:53 AM50 °FClear.No wind94%30.22 "Hg10 mi
5:53 AM48 °FClear.No wind94%30.20 "Hg10 mi
5:35 AM49 °FPassing clouds.No wind94%30.19 "Hg10 mi
5:15 AM49 °FClear.3 mph97%30.18 "Hg10 mi
4:55 AM50 °FPassing clouds.No wind95%30.17 "Hg10 mi
4:35 AM50 °FPassing clouds.No wind97%30.17 "Hg10 mi
4:15 AM50 °FPassing clouds.No wind97%30.17 "Hg10 mi
3:55 AM50 °FPassing clouds.No wind95%30.16 "Hg10 mi
3:35 AM52 °FClear.No wind89%30.15 "Hg10 mi
3:15 AM52 °FPassing clouds.No wind90%30.16 "Hg10 mi
Weather by CustomWeather, © 2014

See weather overviewHow to use our weather pages